[[{"header":{"parameterUnit":"m.s-1","parameterCategory":1,"la1":30.2991,"la2":30.254,"lo1":-89.0895,"lo2":-89.0444,"dy":0.0017,"dx":0.0017,"nx":28,"ny":28,"refTime":"2023-10-27T21:00:00:Z","depth":0,"parameterNumber":2,"parameterNumberName":"U-component_of_WINDS"},"data":[0,0,0,0,0,0,0,0,0,0,0,0,0,0,0,0,0,0,0,0,0,0,0,0,0,0,0,0,0,0,0,0,0,0,0,0,0,0,0,0,0,0,0,0,0,0,0,0,0,0,0,0,0,0,0,0,0,0,-2.3087,-2.3086,0,-2.3025,-2.3025,-2.3024,-2.2928,-2.2926,-2.2924,-2.2923,-2.2861,-2.2861,-2.2861,0,0,0,0,0,0,0,0,0,0,0,0,0,-2.3123,-2.3123,-2.3087,-2.3086,-2.3085,-2.3025,-2.3025,-2.3024,-2.2928,-2.2926,-2.2924,-2.2922,-2.2861,-2.2861,-2.2861,0,0,0,0,0,0,0,0,0,0,0,0,0,-2.3089,-2.3123,-2.3087,-2.303,-2.3025,-2.3026,-2.3025,-2.3024,-2.2928,-2.2926,-2.2923,-2.2921,-2.2861,-2.2861,-2.2861,-2.2913,0,0,-2.2861,-2.2861,0,0,0,0,0,0,0,0,-2.3091,-2.3088,-2.3039,-2.3034,-2.3028,-2.2981,-2.3015,-2.2987,-2.2929,-2.2965,-2.2923,-2.292,-2.2903,-2.29,-2.2894,-2.291,-2.2908,-2.2861,-2.2861,-2.2861,-2.2861,0,0,0,0,0,0,0,-2.3094,-2.309,-2.3063,-2.3039,-2.3032,-2.3009,-2.3001,-2.3009,-2.295,-2.2962,-2.2955,-2.2949,-2.29,-2.2894,-2.2892,-2.2907,-2.2861,-2.2861,-2.2861,-2.2861,-2.2962,-2.2965,0,0,0,0,0,0,-2.3104,-2.3093,-2.3064,-2.3061,-2.3054,-2.301,-2.3001,-2.2999,-2.2949,-2.2939,-2.2951,-2.2944,-2.2896,-2.2892,-2.2889,-2.2946,-2.2861,-2.2861,-2.2861,-2.2959,-2.2963,-2.2966,0,0,0,0,0,0,-2.3105,-2.3103,-2.3067,-2.3075,-2.3068,-2.3012,-2.301,-2.2999,-2.2993,-2.2941,-2.293,-2.2956,-2.2893,-2.2889,-2.2908,-2.2942,-2.2861,-2.2861,-2.2956,-2.296,-2.2964,-2.306,0,0,0,0,0,0,-2.3107,-2.3104,-2.3122,-2.3076,-2.3068,-2.3086,-2.3012,-2.3,-2.2993,-2.2984,-2.2943,-2.2934,-2.2891,-2.2908,-2.2908,-2.2941,-2.2861,-2.2953,-2.2958,-2.2963,-2.3053,-2.3066,-2.3078,0,0,0,0,0,-2.3109,-2.3152,-2.3124,-2.3121,-2.309,-2.3088,-2.3084,-2.3034,-2.2997,-2.3015,-2.2982,-2.2935,-2.2939,-2.2911,-2.2909,-2.2943,-2.295,-2.2957,-2.2962,-2.3048,-2.3064,-2.3078,0,0,0,0,0,0,-2.3204,-2.3145,-2.3113,-2.3142,-2.3121,-2.3072,-2.3093,-2.3053,-2.3041,-2.3033,-2.2972,-2.2964,-2.299,-2.2969,-2.2938,-2.2991,-2.2938,-2.2944,-2.3003,-2.3018,-2.303,-2.3033,-2.2861,0,0,0,0,0,-2.3229,-2.3232,-2.318,-2.3211,-2.3202,-2.315,-2.3147,-2.311,-2.3086,-2.3076,-2.3044,-2.3023,-2.3019,-2.3018,-2.3011,-2.3051,-2.304,-2.3073,-2.3086,-2.3096,-2.3101,-2.3119,-2.3133,-2.2985,-2.2985,-2.2985,0,0,-2.328,-2.3248,-2.3253,-2.323,-2.3208,-2.3213,-2.3143,-2.3151,-2.3153,-2.3078,-2.3092,-2.3068,-2.304,-2.3069,-2.308,-2.3052,-2.314,-2.3104,-2.3112,-2.3112,-2.3127,-2.3141,-2.3154,-2.299,-2.2989,-2.2988,0,0,-2.3373,-2.335,-2.3373,-2.3354,-2.3323,-2.3288,-2.3294,-2.3251,-2.3232,-2.3246,-2.3189,-2.3192,-2.3187,-2.3169,-2.3159,-2.3248,-2.3205,-2.3249,-2.3312,-2.3331,-2.3342,-2.3352,-2.3382,-2.3394,-2.3254,-2.3255,-2.3255,0,-2.344,-2.3443,-2.339,-2.3401,-2.3392,-2.3325,-2.3347,-2.3331,-2.3301,-2.3296,-2.3266,-2.3258,-2.3235,-2.3257,-2.3279,-2.3274,-2.3279,-2.3251,-2.3345,-2.3354,-2.3363,-2.3391,-2.3403,-2.326,-2.3259,-2.3259,-2.3258,0,-2.3526,-2.353,-2.3553,-2.3523,-2.3518,-2.3535,-2.3484,-2.3485,-2.345,-2.3419,-2.3434,-2.3404,-2.339,-2.3393,-2.3359,-2.3411,-2.3395,-2.3356,-2.3301,-2.3383,-2.3408,-2.3419,-2.3268,-2.3266,-2.3264,-2.3263,0,0,-2.3676,-2.3618,-2.3627,-2.3613,-2.3575,-2.3577,-2.3592,-2.3577,-2.3579,-2.3561,-2.3571,-2.3569,-2.3532,-2.3522,-2.3485,-2.3502,-2.3572,-2.346,-2.3459,-2.348,-2.3627,-2.3655,-2.3668,-2.3545,-2.3546,-2.3548,-2.3629,0,-2.376,-2.378,-2.3733,-2.3765,-2.3767,-2.3704,-2.3717,-2.3695,-2.3667,-2.3665,-2.3635,-2.3634,-2.3587,-2.3579,-2.3593,-2.3561,-2.3601,-2.3555,-2.3552,-2.3553,-2.3559,-2.3682,-2.3711,-2.3788,-2.3639,-2.364,-2.3641,0,-2.386,-2.3846,-2.3878,-2.3838,-2.3837,-2.3849,-2.3833,-2.3832,-2.3807,-2.3785,-2.3774,-2.3732,-2.3743,-2.3693,-2.3708,-2.3678,-2.3675,-2.3659,-2.3661,-2.3656,-2.36,-2.3679,-2.3812,-2.3823,-2.3657,-2.3656,-2.3654,0,-2.3964,-2.3954,-2.3971,-2.3961,-2.3915,-2.3925,-2.3907,-2.3879,-2.3873,-2.386,-2.3856,-2.3844,-2.3837,-2.383,-2.3785,-2.3753,-2.3805,-2.3751,-2.3787,-2.3788,-2.3798,-2.3798,-2.3931,-2.3801,-2.3801,-2.3801,-2.3801,0,-2.4061,-2.4082,-2.4016,-2.4027,-2.4049,-2.3996,-2.402,-2.3996,-2.3972,-2.3976,-2.3923,-2.3929,-2.3871,-2.3871,-2.3837,-2.3853,-2.3852,-2.3834,-2.3824,-2.3837,-2.3839,-2.3832,-2.3825,-2.3804,-2.3803,-2.3803,-2.3802,0,-2.4178,-2.4136,-2.415,-2.4106,-2.4096,-2.4114,-2.4076,-2.4084,-2.4054,-2.4061,-2.4059,-2.4011,-2.4008,-2.3964,-2.3952,-2.3929,-2.3959,-2.3941,-2.3967,-2.396,-2.3997,-2.3994,-2.4129,-2.4143,-2.4007,-2.4008,-2.4009,0,-2.4242,-2.4257,-2.4214,-2.4214,-2.4197,-2.4197,-2.4191,-2.4141,-2.4137,-2.411,-2.4121,-2.4114,-2.4105,-2.4104,-2.4068,-2.4058,-2.4037,-2.4086,-2.4036,-2.4048,-2.4035,-2.4034,-2.4035,-2.4095,-2.4097,-2.4099,-2.41,0,-2.4358,-2.4336,-2.433,-2.4316,-2.4311,-2.4298,-2.4282,-2.4285,-2.4229,-2.4228,-2.4224,-2.4217,-2.4205,-2.4198,-2.4182,-2.4164,-2.4122,-2.4116,-2.4124,-2.4136,-2.4149,-2.414,-2.3993,-2.4113,-2.4111,-2.411,-2.411,-2.4109,-2.4448,-2.4458,-2.443,-2.4425,-2.4408,-2.4394,-2.4399,-2.437,-2.4365,-2.435,-2.4322,-2.4322,-2.4297,-2.4272,-2.4257,-2.4257,-2.4232,-2.4243,-2.4246,-2.4248,-2.4255,-2.4152,-2.4254,-2.4254,-2.4253,-2.4253,-2.4253,0,-2.456,-2.4539,-2.4535,-2.4514,-2.451,-2.4473,-2.4453,-2.4452,-2.4453,-2.4433,-2.4426,-2.4421,-2.4415,-2.438,-2.4369,-2.4376,-2.4357,-2.4375,-2.4372,-2.4368,-2.4279,-2.4272,-2.439,-2.439,-2.439,-2.439,-2.439,-2.439,-2.4617,-2.4631,-2.4607,-2.4613,-2.4592,-2.4591,-2.4583,-2.4571,-2.4554,-2.4552,-2.4546,-2.4523,-2.4497,-2.4484,-2.4477,-2.4467,-2.4464,-2.4488,-2.4472,-2.4388,-2.4375,-2.4362,-2.4355,-2.4489,-2.4489,-2.4561,-2.4562,-2.4562]},{"header":{"parameterUnit":"m.s-1","parameterCategory":1,"la1":30.2991,"la2":30.254,"lo1":-89.0895,"lo2":-89.0444,"dy":0.0017,"dx":0.0017,"nx":28,"ny":28,"refTime":"2023-10-27T21:00:00:Z","depth":0,"parameterNumber":3,"parameterNumberName":"V-component_of_WINDS"},"data":[0,0,0,0,0,0,0,0,0,0,0,0,0,0,0,0,0,0,0,0,0,0,0,0,0,0,0,0,0,0,0,0,0,0,0,0,0,0,0,0,0,0,0,0,0,0,0,0,0,0,0,0,0,0,0,0,0,0,0.4493,0.4492,0,0.4442,0.4442,0.4441,0.4355,0.4353,0.4351,0.435,0.4298,0.4298,0.4299,0,0,0,0,0,0,0,0,0,0,0,0,0,0.4517,0.4517,0.4493,0.4492,0.4492,0.4442,0.4442,0.4441,0.4355,0.4353,0.4351,0.4349,0.4298,0.4298,0.4299,0,0,0,0,0,0,0,0,0,0,0,0,0,0.4491,0.4517,0.4493,0.4443,0.4438,0.4443,0.4442,0.4441,0.4355,0.4353,0.435,0.4348,0.4298,0.4298,0.4299,0.4348,0,0,0.4299,0.4299,0,0,0,0,0,0,0,0,0.4492,0.449,0.4451,0.4446,0.4441,0.4402,0.4431,0.441,0.4356,0.4387,0.435,0.4347,0.4335,0.4332,0.4328,0.4346,0.4344,0.4299,0.4299,0.4299,0.4299,0,0,0,0,0,0,0,0.4494,0.4492,0.4473,0.445,0.4444,0.4423,0.4417,0.4427,0.4375,0.4384,0.4377,0.4373,0.4332,0.4328,0.4326,0.4343,0.4299,0.4299,0.43,0.43,0.4403,0.4406,0,0,0,0,0,0,0.4503,0.4494,0.4475,0.4471,0.4461,0.4425,0.4418,0.4417,0.4375,0.4366,0.4375,0.4369,0.4329,0.4326,0.4324,0.4382,0.4299,0.43,0.43,0.4401,0.4404,0.4407,0,0,0,0,0,0,0.4504,0.4502,0.4477,0.4481,0.4476,0.4427,0.4427,0.4417,0.4413,0.4368,0.4358,0.438,0.4327,0.4323,0.4344,0.4379,0.43,0.43,0.4398,0.4402,0.4405,0.4497,0,0,0,0,0,0,0.4505,0.4503,0.4521,0.4482,0.4476,0.4497,0.4429,0.4418,0.4414,0.4406,0.437,0.4362,0.4324,0.4344,0.4344,0.4378,0.43,0.4394,0.4399,0.4404,0.4491,0.4504,0.4515,0,0,0,0,0,0.4506,0.4548,0.4522,0.4521,0.4497,0.4499,0.4496,0.4452,0.4417,0.4435,0.4406,0.4363,0.4375,0.4347,0.4346,0.438,0.4392,0.4398,0.4404,0.4486,0.4501,0.4515,0,0,0,0,0,0,0.4592,0.4542,0.4513,0.4543,0.4526,0.4485,0.4506,0.4469,0.4462,0.4454,0.4399,0.4392,0.442,0.4402,0.4372,0.4428,0.4377,0.4383,0.4439,0.4454,0.4466,0.447,0.43,0,0,0,0,0,0.4615,0.462,0.4576,0.4607,0.46,0.4555,0.4554,0.4522,0.4502,0.4494,0.4466,0.4449,0.4449,0.445,0.4447,0.4487,0.448,0.4511,0.4523,0.4533,0.454,0.4563,0.4577,0.4426,0.4426,0.4426,0,0,0.4661,0.4634,0.4641,0.4624,0.4607,0.4615,0.4549,0.456,0.4566,0.4495,0.4514,0.4493,0.447,0.4502,0.4514,0.4488,0.458,0.4541,0.4549,0.455,0.457,0.4585,0.4597,0.443,0.4429,0.4429,0,0,0.475,0.473,0.4755,0.474,0.4715,0.4685,0.4692,0.4656,0.464,0.4657,0.4606,0.4612,0.4612,0.4599,0.4593,0.468,0.4642,0.4681,0.4744,0.4767,0.4779,0.479,0.4824,0.4836,0.4687,0.4687,0.4687,0,0.4811,0.4821,0.4772,0.4787,0.4782,0.472,0.4746,0.4734,0.471,0.4708,0.4678,0.468,0.4659,0.4689,0.471,0.4706,0.4713,0.4685,0.4781,0.4791,0.48,0.4832,0.4845,0.4692,0.4692,0.4691,0.4691,0,0.4898,0.4906,0.4929,0.4909,0.4906,0.4927,0.4883,0.4886,0.4855,0.4828,0.4849,0.4823,0.4815,0.4819,0.4787,0.4845,0.4829,0.4791,0.4739,0.4821,0.485,0.4861,0.47,0.4698,0.4696,0.4695,0,0,0.5039,0.4994,0.5004,0.4995,0.4965,0.497,0.4988,0.4981,0.4987,0.4973,0.4988,0.4991,0.4957,0.495,0.4916,0.4936,0.5011,0.4896,0.4895,0.4921,0.5076,0.5107,0.5121,0.4985,0.4987,0.4988,0.5079,0,0.5124,0.5153,0.5111,0.515,0.5159,0.5101,0.5117,0.5101,0.5078,0.5082,0.5055,0.5059,0.5012,0.5008,0.5025,0.4998,0.5042,0.4991,0.5001,0.5002,0.501,0.5136,0.5167,0.5254,0.509,0.5091,0.5093,0,0.5226,0.5219,0.5259,0.5229,0.5231,0.5247,0.5239,0.5242,0.5224,0.5205,0.5199,0.516,0.5178,0.5126,0.5151,0.5118,0.5119,0.5107,0.5109,0.511,0.5054,0.5143,0.528,0.5295,0.511,0.5108,0.5107,0,0.5329,0.5328,0.5353,0.5347,0.5312,0.5325,0.5311,0.529,0.529,0.5283,0.5282,0.5277,0.5275,0.5273,0.5234,0.52,0.5265,0.5209,0.5252,0.5253,0.527,0.5269,0.5412,0.5267,0.5267,0.5267,0.5266,0,0.5429,0.5456,0.54,0.5415,0.5445,0.5397,0.5429,0.5409,0.5391,0.5403,0.5352,0.5364,0.5311,0.5318,0.5288,0.5315,0.5314,0.5301,0.5293,0.5307,0.5309,0.5308,0.5302,0.527,0.5269,0.5269,0.5268,0,0.5548,0.5511,0.5535,0.5501,0.5493,0.5517,0.5488,0.5502,0.5475,0.5491,0.5492,0.5451,0.5457,0.5418,0.5416,0.5396,0.5439,0.5419,0.5446,0.5441,0.5486,0.5484,0.5635,0.5654,0.5495,0.5497,0.5498,0,0.5616,0.5636,0.5604,0.5609,0.5598,0.5605,0.5605,0.556,0.5562,0.5544,0.5561,0.5563,0.5562,0.5574,0.5545,0.5544,0.5526,0.5579,0.5526,0.554,0.553,0.5531,0.5534,0.5591,0.5593,0.5595,0.5596,0,0.574,0.5721,0.5723,0.572,0.5721,0.5716,0.5707,0.5714,0.5665,0.567,0.5676,0.5676,0.5675,0.5679,0.5673,0.5659,0.5621,0.5613,0.5623,0.5639,0.5655,0.565,0.5479,0.561,0.5609,0.5608,0.5607,0.5606,0.5837,0.5854,0.5835,0.584,0.5829,0.5823,0.5835,0.5811,0.5815,0.5812,0.5785,0.5797,0.578,0.5768,0.5759,0.5768,0.5743,0.5757,0.5761,0.5766,0.5776,0.5652,0.5766,0.5766,0.5765,0.5765,0.5765,0,0.5961,0.5947,0.5952,0.5942,0.5947,0.591,0.5899,0.5905,0.5917,0.5904,0.5906,0.5914,0.5918,0.589,0.589,0.5904,0.5886,0.5906,0.5905,0.5904,0.5796,0.5789,0.592,0.592,0.592,0.592,0.592,0.592,0.6026,0.6054,0.6033,0.6055,0.6041,0.6053,0.605,0.6045,0.6035,0.6048,0.6051,0.6033,0.6015,0.6014,0.6017,0.6008,0.6012,0.6038,0.6025,0.5926,0.5911,0.5896,0.5889,0.6039,0.6039,0.6131,0.6132,0.6132]}]]